Alamosa, CO

3:41 PM MDT on July 24, 2017 (GMT -0600)
San Luis Valley Regional / Bergman Field

Weather History for KALS - August, 2013

Change the Weather History Date:

Friday, August 23, 2013

  Actual Average Record
Temperature  
Mean Temperature 66 °F 62 °F  
Max Temperature 82 °F 79 °F 89 °F (1938)
Min Temperature 50 °F 45 °F 35 °F (1941)
Degree Days  
Heating Degree Days 0 3  
Month to date heating degree days 47 50  
Since 1 June heating degree days 177 263  
Since 1 July heating degree days 75 95  
Cooling Degree Days 1 0  
Month to date cooling degree days 20 12  
Year to date cooling degree days 85 50  
Since 1 June cooling degree days 85 50  
Growing Degree Days 17 (Base 50)    
Moisture  
Dew Point 43 °F    
Average Humidity 54    
Maximum Humidity 96    
Minimum Humidity 11    
Precipitation  
Precipitation T in 0.04 in 0.33 in (1906)
Month to date precipitation 2.22 0.94  
Year to date precipitation 4.63 4.62  
Snow  
Snow 0.00 in 0.00 in 0.00 in (2002)
Month to date snowfall 0.0 0.0  
Since 1 June snowfall 0.0 0.0  
Since 1 July snowfall 0.0 0.0  
Snow Depth 0.00 in    
Sea Level Pressure  
Sea Level Pressure 30.01 in    
Wind  
Wind Speed 8 mph (South)    
Max Wind Speed 17 mph    
Max Gust Speed 23 mph    
Visibility 10 miles    
Events Rain    
T = Trace of Precipitation, MM = Missing Value Source: NWS Daily Summary

Daily Weather History Graph

Daily Weather History Graph

Search for Another Location

Airport or City:

Trip Planner

Search our weather history database for the weather conditions in past years. The results will help you decide how hot, cold, wet, or windy it might be!

Date:

Astronomy

Aug. 23, 2013 Rise Set
Actual Time 6:26 AM MDT 7:44 PM MDT
Civil Twilight 5:59 AM MDT 8:11 PM MDT
Nautical Twilight 5:26 AM MDT 8:44 PM MDT
Astronomical Twilight 4:52 AM MDT 9:18 PM MDT
Moon 9:10 PM MDT (8/23) 9:19 AM MDT (8/23)
Length of Visible Light 14h 12m
Length of Day
13h 18m
Waning Gibbous, 91% of the Moon is Illuminated
Aug 23
Waning Gibbous
Aug 28
Last Quarter
Sep 5
New
Sep 12
First Quarter
Sep 19
Full

Hourly Weather History & Observations

Time (MDT) Temp. Dew Point Humidity Pressure Visibility Wind Dir Wind Speed Gust Speed Precip Events Conditions
12:52 AM 60.1 °F 48.9 °F 67% 30.36 in 10.0 mi WNW 4.6 mph - N/A   Overcast
1:52 AM 59.0 °F 51.1 °F 75% 30.05 in 10.0 mi SW 5.8 mph - 0.00 in Rain Light Rain
2:52 AM 57.0 °F 50.0 °F 77% 30.04 in 10.0 mi SSE 8.1 mph - 0.00 in   Partly Cloudy
3:52 AM 57.9 °F 52.0 °F 81% 30.02 in 10.0 mi ESE 9.2 mph - N/A   Mostly Cloudy
4:52 AM 55.0 °F 51.1 °F 86% 30.04 in 10.0 mi North 3.5 mph - N/A   Overcast
5:52 AM 52.0 °F 48.9 °F 89% 30.09 in 10.0 mi Calm Calm - N/A   Clear
6:52 AM 52.0 °F 50.0 °F 93% 30.11 in 10.0 mi Calm Calm - N/A   Partly Cloudy
7:52 AM 55.9 °F 52.0 °F 87% 30.10 in 10.0 mi South 3.5 mph - N/A   Scattered Clouds
8:52 AM 60.1 °F 52.0 °F 75% 30.11 in 10.0 mi Variable 3.5 mph - N/A   Clear
9:52 AM 64.9 °F 51.1 °F 61% 30.09 in 10.0 mi Variable 4.6 mph - N/A   Clear
10:52 AM 71.1 °F 50.0 °F 47% 30.06 in 10.0 mi South 9.2 mph - N/A   Clear
11:52 AM 73.9 °F 44.1 °F 34% 30.04 in - Calm Calm - N/A   Clear
12:52 PM 78.1 °F 39.0 °F 25% 29.99 in 10.0 mi North - - N/A   Clear
1:52 PM 78.1 °F 36.0 °F 22% 29.96 in 10.0 mi North - - N/A   Clear
2:52 PM 81.0 °F 32.0 °F 17% 29.94 in 10.0 mi South 12.7 mph - N/A   Clear
3:52 PM 82.0 °F 23.0 °F 11% 29.90 in 10.0 mi South 10.4 mph 17.3 mph N/A   Clear
4:52 PM 82.0 °F 26.1 °F 13% 29.89 in 10.0 mi South 15.0 mph 20.7 mph N/A   Clear
5:52 PM 80.1 °F 28.0 °F 15% 29.89 in 10.0 mi South 13.8 mph 21.9 mph N/A   Clear
6:52 PM 78.1 °F 30.9 °F 18% 29.89 in 10.0 mi South 11.5 mph - N/A   Clear
7:52 PM 69.1 °F 37.0 °F 31% 29.91 in 10.0 mi South 8.1 mph - N/A   Partly Cloudy
8:52 PM 63.0 °F 39.0 °F 41% 29.95 in 10.0 mi SW 8.1 mph - N/A   Clear
9:52 PM 60.1 °F 41.0 °F 49% 29.97 in 10.0 mi SSW 6.9 mph - N/A   Mostly Cloudy
10:52 PM 64.9 °F 45.0 °F 48% 29.94 in 10.0 mi South 13.8 mph - N/A   Mostly Cloudy
11:52 PM 64.9 °F 46.0 °F 50% 29.94 in 10.0 mi South 11.5 mph - N/A   Mostly Cloudy